RYR35FH LFOB-LEAL

Flight info

Callsign RYR35FH
Flight time N/A
Altitude 39000
Route ERIXU DCT ETAMO DCT GUERE DCT EVPOK DCT AGN DCT ANETO DCT POSSY DCT XIMPE DCT RIMES N860 VLC
Aircraft B38M/M-SDE1FGHILORVWXY/HB1

Departure

Time 2026-05-04 15:12
Airport Beauvais-Tillé airport (LFOB)

Arrival

Time N/A
Airport Alicante-Elche Miguel Hernández Airport (LEAL)
Time Latitude Longitude Altitude Speed Heading
2026-05-04 14:50 49.45825 2.11324 363 ft 0 kts 311°
2026-05-04 15:03 49.45808 2.11353 363 ft 4 kts 310°
2026-05-04 15:03 49.45792 2.11385 360 ft 3 kts 302°
2026-05-04 15:03 49.45787 2.11405 358 ft 2 kts 254°
2026-05-04 15:03 49.45793 2.11420 359 ft 2 kts 227°
2026-05-04 15:04 49.45798 2.11428 354 ft 0 kts 224°
2026-05-04 15:07 49.45793 2.11421 359 ft 2 kts 224°
2026-05-04 15:07 49.45776 2.11396 361 ft 5 kts 223°
2026-05-04 15:07 49.45745 2.11351 354 ft 7 kts 223°
2026-05-04 15:07 49.45703 2.11290 362 ft 9 kts 235°
2026-05-04 15:08 49.45719 2.11194 359 ft 11 kts 304°
2026-05-04 15:08 49.45765 2.11086 360 ft 13 kts 304°
2026-05-04 15:08 49.45780 2.10977 360 ft 10 kts 231°
2026-05-04 15:08 49.45768 2.10962 359 ft 0 kts 209°
2026-05-04 15:09 49.45760 2.10955 356 ft 4 kts 208°
2026-05-04 15:10 49.45667 2.10878 364 ft 18 kts 209°
2026-05-04 15:10 49.45675 2.10728 361 ft 18 kts 306°
2026-05-04 15:10 49.45842 2.10433 362 ft 10 kts 299°
2026-05-04 15:11 49.45835 2.10413 359 ft 4 kts 207°
2026-05-04 15:11 49.45807 2.10435 363 ft 6 kts 117°
2026-05-04 15:11 49.45786 2.10485 360 ft 0 kts 124°
2026-05-04 15:11 49.45781 2.10496 360 ft 8 kts 124°
2026-05-04 15:12 49.45603 2.10903 360 ft 82 kts 123°
2026-05-04 15:12 49.45173 2.11896 365 ft 141 kts 123°
2026-05-04 15:12 49.44567 2.13303 670 ft 162 kts 122°
2026-05-04 15:12 49.44222 2.14930 1397 ft 164 kts 94°
2026-05-04 15:13 49.44266 2.16218 1866 ft 169 kts 79°
2026-05-04 15:13 49.44488 2.18004 2583 ft 177 kts 78°
2026-05-04 15:13 49.44613 2.19998 3061 ft 200 kts 87°
2026-05-04 15:13 49.44638 2.22290 3500 ft 228 kts 88°
2026-05-04 15:14 49.44663 2.24839 4161 ft 243 kts 88°
2026-05-04 15:14 49.44694 2.27515 4938 ft 258 kts 88°
2026-05-04 15:14 49.44731 2.30338 5740 ft 266 kts 88°
2026-05-04 15:14 49.44770 2.33159 6728 ft 269 kts 88°
2026-05-04 15:15 49.44683 2.36051 7647 ft 273 kts 104°
2026-05-04 15:15 49.43856 2.38688 8673 ft 279 kts 122°
2026-05-04 15:15 49.42859 2.41269 9582 ft 282 kts 118°
2026-05-04 15:16 49.40730 2.46574 10792 ft 311 kts 134°
2026-05-04 15:16 49.38909 2.48473 11299 ft 327 kts 158°
2026-05-04 15:16 49.34328 2.48433 12790 ft 342 kts 198°
2026-05-04 15:17 49.32031 2.47346 13528 ft 349 kts 189°
2026-05-04 15:17 49.27851 2.48491 14897 ft 349 kts 158°
2026-05-04 15:17 49.25500 2.49541 15635 ft 353 kts 167°
2026-05-04 15:18 49.23112 2.50322 16407 ft 356 kts 167°
2026-05-04 15:18 49.20671 2.51105 17137 ft 360 kts 168°
2026-05-04 15:18 49.18328 2.51840 17843 ft 363 kts 168°
2026-05-04 15:19 49.13332 2.53378 19121 ft 369 kts 169°
2026-05-04 15:19 49.10801 2.54151 19730 ft 372 kts 169°
2026-05-04 15:19 49.05698 2.55706 20918 ft 377 kts 169°
2026-05-04 15:20 49.03133 2.56487 21507 ft 380 kts 169°
2026-05-04 15:20 49.00549 2.57272 22086 ft 382 kts 170°
2026-05-04 15:20 48.97929 2.58067 22691 ft 385 kts 170°
2026-05-04 15:20 48.95292 2.58867 23277 ft 388 kts 170°
2026-05-04 15:21 48.92634 2.59673 23808 ft 390 kts 170°
2026-05-04 15:21 48.89960 2.60482 24323 ft 392 kts 170°
2026-05-04 15:21 48.84597 2.61854 25325 ft 394 kts 182°
2026-05-04 15:22 48.81906 2.61181 25854 ft 393 kts 198°
2026-05-04 15:22 48.79303 2.59842 26287 ft 396 kts 198°
2026-05-04 15:22 48.74001 2.57403 27270 ft 400 kts 197°
2026-05-04 15:23 48.71337 2.56142 27740 ft 402 kts 198°
2026-05-04 15:23 48.68659 2.54857 28184 ft 404 kts 198°
2026-05-04 15:23 48.66007 2.53578 28629 ft 406 kts 198°
2026-05-04 15:23 48.63305 2.52271 29075 ft 408 kts 198°
2026-05-04 15:24 48.57867 2.49643 29929 ft 412 kts 198°
2026-05-04 15:24 48.52368 2.46991 30654 ft 416 kts 198°
2026-05-04 15:25 48.49600 2.45659 31006 ft 418 kts 198°
2026-05-04 15:25 48.46822 2.44323 31351 ft 420 kts 198°
2026-05-04 15:25 48.44038 2.42985 31704 ft 421 kts 198°
2026-05-04 15:26 48.38432 2.40297 32546 ft 421 kts 198°
2026-05-04 15:26 48.35646 2.38964 33034 ft 419 kts 198°
2026-05-04 15:26 48.30146 2.36336 33961 ft 416 kts 198°
2026-05-04 15:27 48.27385 2.35018 34312 ft 415 kts 198°
2026-05-04 15:27 48.21857 2.32386 34897 ft 417 kts 198°
2026-05-04 15:28 48.16312 2.29751 35487 ft 419 kts 198°
2026-05-04 15:28 48.13520 2.28427 35775 ft 420 kts 198°
2026-05-04 15:28 48.07970 2.25856 36319 ft 422 kts 195°
2026-05-04 15:29 48.05098 2.24891 36581 ft 423 kts 194°
2026-05-04 15:30 47.93605 2.20904 37580 ft 426 kts 194°
2026-05-04 15:30 47.85284 2.17960 37844 ft 426 kts 194°
2026-05-04 15:31 47.76643 2.14910 37846 ft 425 kts 194°
2026-05-04 15:32 47.68016 2.11877 37302 ft 423 kts 194°
2026-05-04 15:32 47.62316 2.09878 36909 ft 420 kts 194°
2026-05-04 15:34 47.48082 2.04906 36921 ft 421 kts 194°
2026-05-04 15:34 47.39524 2.01931 36929 ft 421 kts 194°
2026-05-04 15:35 47.30979 1.98969 36932 ft 420 kts 194°
2026-05-04 15:36 47.22470 1.96030 36930 ft 420 kts 194°
2026-05-04 15:36 47.16787 1.94073 36926 ft 420 kts 194°
2026-05-04 15:37 47.11099 1.92117 36928 ft 420 kts 194°
2026-05-04 15:37 47.05415 1.90168 36913 ft 419 kts 194°
2026-05-04 15:38 46.99799 1.88246 36909 ft 420 kts 194°
2026-05-04 15:38 46.94111 1.86304 36911 ft 419 kts 194°
2026-05-04 15:39 46.88424 1.84366 36910 ft 419 kts 194°
2026-05-04 15:40 46.79877 1.81462 36906 ft 420 kts 194°
2026-05-04 15:40 46.74227 1.79547 36916 ft 420 kts 194°
2026-05-04 15:41 46.68496 1.77609 36908 ft 420 kts 194°
2026-05-04 15:41 46.62846 1.75703 36909 ft 419 kts 194°
2026-05-04 15:42 46.57153 1.73786 36911 ft 419 kts 194°
2026-05-04 15:42 46.51467 1.71876 36915 ft 419 kts 194°
2026-05-04 15:43 46.45817 1.69982 36906 ft 419 kts 194°
2026-05-04 15:43 46.40140 1.68083 36922 ft 418 kts 194°
2026-05-04 15:44 46.34469 1.66189 36909 ft 418 kts 194°
2026-05-04 15:44 46.28811 1.64305 36911 ft 417 kts 194°
2026-05-04 15:45 46.23174 1.62431 36913 ft 417 kts 194°
2026-05-04 15:45 46.17528 1.60558 36915 ft 416 kts 194°
2026-05-04 15:46 46.11881 1.58689 36919 ft 416 kts 194°
2026-05-04 15:46 46.06681 1.56971 36921 ft 415 kts 194°
2026-05-04 15:47 46.01048 1.55114 36923 ft 415 kts 194°
2026-05-04 15:47 45.95455 1.53274 36910 ft 415 kts 194°
2026-05-04 15:48 45.89826 1.51426 36918 ft 415 kts 194°